Theta_e
317 318 318 318 316 314 313 313 313 313 313 315 315 316 317 318 318 317 317 317 317 317 319 319 318 318 317 316 317 317 317 317 316 316 316 315 315 315 316 316 317 317 317 317 316 316 317 318 318 317 318 319 320 321 320 319 318 320 324 322 319 319 318 318 319 318 318 318 318 318 317 316 316 316 315 315 315 315 316 315 315 315 313 313 313 312 312 311
317 317 318 318 317 314 314 314 313 313 314 315 316 316 317 318 318 317 317 317 318 317 319 320 318 318 317 316 316 317 316 316 317 316 316 315 315 315 316 316 317 317 317 317 316 316 317 317 317 317 318 320 320 320 321 320 319 321 322 320 320 319 318 318 318 318 318 317 317 318 317 316 315 315 315 315 316 316 315 315 314 313 312 312 312 312 311 309
317 317 318 318 317 315 315 314 314 314 315 316 316 317 318 318 318 318 318 319 319 318 319 320 319 318 317 316 317 317 316 317 317 316 316 316 316 316 317 317 317 317 316 316 316 316 316 316 316 317 318 320 320 319 320 320 320 321 320 321 320 317 318 318 317 318 317 317 317 317 316 316 315 314 314 315 316 315 314 314 314 312 312 312 312 310 309 309
317 317 318 319 318 316 315 314 314 314 315 317 317 318 318 319 318 318 319 319 320 320 321 321 319 318 317 317 317 317 316 319 318 315 316 316 316 317 316 316 315 314 314 314 314 315 315 316 316 317 319 320 320 320 320 319 319 320 319 320 319 317 318 317 316 317 316 316 316 316 316 316 315 314 314 315 315 314 313 313 312 311 312 311 310 309 308 308
317 317 318 319 318 317 316 314 314 315 316 318 318 319 319 319 318 318 319 320 321 321 322 321 319 318 317 317 317 316 317 321 318 315 317 317 317 317 314 313 313 312 312 312 313 314 316 317 317 319 320 320 320 320 320 318 317 318 318 319 318 317 317 316 316 316 315 315 315 316 315 314 315 314 314 315 314 313 313 312 311 311 311 309 308 307 307 306
317 317 317 319 319 318 316 315 314 315 318 319 319 319 319 319 319 319 320 320 321 322 322 321 319 318 317 317 317 316 319 320 317 316 317 317 317 315 313 313 312 312 312 312 314 316 317 317 318 319 318 318 319 319 319 317 316 317 318 318 317 316 316 316 315 315 314 314 315 315 314 314 315 314 314 314 314 313 312 311 311 310 309 307 307 306 306 305
317 317 318 319 319 319 317 315 314 316 319 320 320 320 320 320 319 320 320 320 322 323 322 320 318 317 317 317 317 317 319 319 317 317 317 316 317 314 313 313 312 312 312 313 314 315 316 317 317 317 317 318 318 318 318 317 316 316 317 317 316 315 315 315 315 314 314 314 314 314 314 315 315 314 314 314 313 312 311 310 310 309 307 306 305 305 304 304
317 317 318 319 320 320 318 315 315 317 320 321 321 321 321 320 320 320 320 321 323 323 323 321 319 317 317 317 318 320 319 318 317 316 316 316 315 313 313 313 312 312 312 313 314 314 317 318 317 317 317 318 318 317 317 316 317 317 317 317 315 315 315 314 314 314 313 314 313 313 314 315 314 314 314 313 312 312 311 309 308 306 305 305 304 304 304 303
317 317 318 319 320 321 319 316 315 318 321 322 322 322 321 321 321 321 321 322 323 323 322 321 319 318 317 317 319 321 319 317 316 315 316 316 314 314 314 312 312 312 313 314 313 314 317 317 317 316 317 318 317 316 316 316 316 317 316 316 315 315 315 314 314 313 313 313 312 313 315 314 313 313 314 313 312 311 309 308 306 305 305 305 304 303 303 303
318 318 318 320 321 321 320 317 316 318 321 323 322 322 322 321 322 322 321 322 323 323 322 320 319 318 317 317 319 321 318 315 316 315 315 315 314 314 313 312 311 312 313 314 314 314 315 315 315 314 316 317 316 315 316 315 315 315 315 315 315 315 314 313 314 314 313 312 312 313 313 314 313 313 313 312 311 310 308 307 306 305 305 304 304 303 302 302
318 318 318 320 321 321 320 318 316 317 320 323 322 322 323 322 322 322 321 322 323 322 321 319 318 317 317 318 321 320 316 315 315 315 315 314 314 314 313 312 310 311 313 314 314 313 313 313 313 314 316 316 315 316 316 315 315 314 313 314 315 315 314 313 314 313 313 312 312 313 313 314 313 313 314 312 311 310 308 306 305 305 304 304 303 302 302 302
317 317 318 320 321 321 320 319 317 317 320 322 323 323 323 322 322 322 322 322 322 323 321 319 318 317 317 318 319 317 315 314 315 314 314 314 314 314 313 311 310 311 312 313 314 313 313 313 312 314 316 315 315 316 315 313 313 313 313 314 315 314 313 314 314 314 313 312 312 313 313 313 313 313 314 312 311 309 307 306 305 304 304 303 302 302 302 301
315 316 318 319 321 321 321 319 318 318 318 320 322 322 322 323 322 322 322 321 322 322 321 319 317 316 318 318 315 314 314 314 314 314 313 314 313 313 312 311 311 311 312 313 313 313 312 313 313 314 314 314 316 315 313 312 312 313 313 314 315 314 313 314 314 313 313 311 312 312 311 312 314 314 313 312 310 308 306 305 304 304 303 302 302 301 301 301
314 315 317 319 321 321 321 320 319 318 318 319 320 321 321 322 322 322 322 321 321 322 320 318 317 316 318 317 314 314 315 314 314 313 312 312 313 313 312 311 311 311 311 312 312 312 312 312 313 313 313 313 314 313 313 313 313 314 314 314 316 315 313 314 314 313 313 312 313 311 309 311 312 313 312 311 309 307 306 305 304 303 302 302 301 301 301 300
315 315 317 318 320 322 322 320 320 319 318 319 319 320 320 321 322 322 321 321 321 322 319 317 316 317 318 316 315 315 315 315 313 312 312 312 312 312 311 310 311 311 311 312 312 312 311 312 313 314 314 314 313 313 315 315 314 315 314 314 316 314 313 314 313 313 313 312 313 311 309 310 311 312 311 309 308 306 305 304 303 302 302 302 301 301 300 300
316 316 317 318 320 322 323 322 321 320 320 319 319 320 320 321 321 321 321 320 321 321 319 317 317 317 319 318 315 316 316 315 313 312 312 312 311 311 311 310 311 310 311 312 311 312 311 311 313 313 313 314 313 314 315 315 315 316 315 314 315 314 313 313 313 313 313 312 312 311 310 311 312 312 310 308 307 305 304 304 303 302 302 301 301 300 300 299
317 317 317 318 320 322 323 323 323 322 322 321 321 321 321 321 321 320 320 319 320 321 318 318 318 317 318 317 316 316 316 315 314 313 312 311 310 310 310 311 311 310 310 312 311 313 312 311 313 313 313 314 313 314 314 314 315 316 315 314 314 313 311 311 312 313 313 311 311 311 311 312 311 311 309 307 306 305 304 303 302 302 301 301 300 300 299 299
318 318 318 318 319 321 324 324 324 323 323 322 321 321 321 321 320 319 319 318 321 322 319 319 320 319 319 317 316 317 315 314 315 314 312 311 310 310 310 310 311 310 312 314 313 314 312 313 315 314 315 315 312 313 313 313 315 314 314 312 312 311 310 311 311 312 312 311 310 311 311 311 310 309 308 307 305 304 304 303 302 301 301 300 300 299 298 298
318 319 319 319 320 321 323 324 324 324 323 321 320 320 320 319 318 318 318 317 320 322 321 320 319 320 320 316 314 315 315 315 315 313 311 311 311 311 311 311 311 311 314 316 315 314 312 313 315 315 316 313 311 312 313 313 313 312 312 311 311 311 311 311 312 312 311 310 310 310 310 309 309 309 307 306 305 304 303 302 302 301 301 300 299 299 298 298
318 320 319 319 320 322 324 324 325 324 322 321 320 320 317 315 317 318 316 316 318 319 319 319 317 318 319 316 313 314 315 315 314 312 312 311 311 312 312 311 313 314 315 315 314 313 312 313 315 315 313 311 310 312 312 311 311 310 311 311 311 312 311 312 312 312 311 309 309 309 309 308 309 308 307 306 305 304 303 302 301 300 300 299 298 298 298 297
317 319 320 320 321 322 324 324 325 324 322 322 322 320 313 310 314 315 313 315 318 318 318 317 316 316 317 316 314 313 314 315 314 313 312 311 311 313 313 312 314 316 316 314 313 314 313 314 316 314 311 309 310 311 310 310 310 310 311 311 312 312 312 312 312 311 310 309 308 309 308 308 308 308 307 306 304 303 302 301 301 300 299 299 298 298 297 297
316 319 320 321 321 323 323 324 325 323 322 322 321 319 311 307 309 309 311 316 318 318 317 315 316 315 315 315 314 313 313 315 315 313 312 311 312 313 313 313 314 315 314 313 314 314 314 315 313 311 309 309 310 310 309 310 310 311 312 312 312 312 312 312 311 311 309 308 308 308 308 308 308 308 307 306 304 302 302 301 300 299 299 298 298 298 297 297
316 319 320 321 322 323 324 325 324 322 322 322 320 316 310 307 306 307 313 317 319 319 316 315 317 316 315 315 313 313 314 314 314 312 311 311 312 311 312 313 313 314 314 313 312 312 313 313 311 309 310 310 310 310 310 310 311 312 313 312 312 312 312 311 311 310 308 308 308 308 308 308 308 307 306 305 304 302 301 300 299 299 298 298 298 297 297 297
315 318 320 321 322 323 323 324 322 321 323 321 318 314 309 307 305 308 315 318 319 318 315 315 316 316 315 314 313 313 314 313 312 311 310 310 311 311 312 311 311 314 314 311 310 310 311 312 310 309 310 310 311 311 312 312 311 311 313 313 312 311 310 310 309 308 308 309 309 307 307 307 308 307 305 305 304 302 300 300 299 299 298 298 297 297 297 296
315 318 320 321 322 323 324 322 321 322 322 319 315 312 309 307 306 311 315 317 320 319 316 316 315 314 314 314 313 312 312 312 311 310 310 309 310 310 311 310 310 314 314 310 309 310 310 310 309 311 311 311 312 311 312 312 310 309 312 311 310 309 309 308 308 308 308 308 308 306 305 307 309 308 306 305 304 302 300 300 299 298 298 297 297 297 296 296
315 319 320 321 322 324 323 319 320 322 320 315 313 310 308 308 309 312 314 317 321 320 318 317 317 316 314 314 313 312 313 313 311 310 309 308 309 309 311 311 310 311 312 309 309 309 309 308 309 311 312 312 312 311 312 311 309 309 310 308 308 308 308 308 307 308 307 307 307 306 305 306 307 308 307 305 303 301 300 300 299 298 298 297 297 296 296 296
316 320 321 321 323 324 322 318 319 321 316 313 311 308 307 309 310 313 316 319 320 320 319 317 317 316 315 314 313 313 315 314 310 309 308 308 309 308 310 312 311 310 309 308 309 310 309 308 310 311 311 311 311 311 312 310 309 309 308 306 306 306 306 307 307 308 307 307 306 306 306 306 306 307 308 305 302 300 299 299 299 298 298 297 296 296 296 295
318 321 321 322 323 324 323 320 319 319 315 312 309 306 307 310 311 314 319 320 319 319 318 316 314 314 314 313 313 313 314 313 313 311 308 309 309 307 309 311 310 309 308 307 309 310 309 309 310 310 310 310 310 310 310 310 309 308 305 304 305 305 306 307 307 307 307 306 305 305 306 306 306 308 308 305 303 301 300 299 298 298 297 296 296 296 295 295
320 321 321 322 323 324 323 320 318 316 314 311 307 305 308 311 312 316 319 319 318 318 316 315 315 314 313 313 313 312 311 313 314 312 309 308 308 307 309 309 307 308 308 307 308 309 308 308 308 308 309 309 308 307 307 308 308 306 305 306 307 307 308 308 307 306 305 304 304 305 306 306 306 307 308 306 304 302 300 299 298 298 297 296 296 295 295 294
320 321 321 322 323 323 321 318 316 314 311 307 305 305 309 312 314 318 319 318 319 318 314 314 316 315 315 315 315 313 312 313 313 310 309 308 307 307 306 306 306 307 307 307 308 308 307 306 306 307 308 308 307 305 306 306 305 305 306 307 307 307 307 307 305 304 304 304 306 306 306 305 304 305 306 304 302 300 299 298 298 297 296 296 295 295 294 294
320 320 321 322 321 320 318 316 314 312 308 304 304 307 311 314 316 317 318 316 317 317 314 314 316 315 315 316 316 315 314 315 312 310 310 309 308 308 307 307 307 307 308 308 308 308 308 307 308 307 306 307 307 306 307 306 305 306 306 306 306 306 306 305 305 304 303 305 306 305 304 303 302 303 302 301 299 298 297 297 297 297 296 296 295 295 294 294
320 320 321 321 321 319 317 314 311 309 306 303 305 309 313 317 317 316 317 316 317 318 317 316 317 316 315 314 315 315 314 315 312 310 311 309 309 310 309 309 310 311 312 311 309 309 309 308 308 307 306 307 308 308 308 308 306 306 306 305 305 305 305 305 305 305 305 306 305 303 301 300 300 302 301 299 298 298 297 297 297 296 296 295 295 294 294 294
320 320 320 320 320 320 318 315 311 308 304 302 306 311 315 318 319 319 319 318 319 318 317 317 316 315 315 314 316 315 312 314 312 309 309 308 308 310 309 307 307 310 312 311 309 309 311 309 307 306 306 306 308 308 308 308 306 305 305 304 304 304 304 305 305 304 305 305 303 301 300 299 300 302 301 299 298 297 297 297 296 296 295 295 294 294 294 293
321 320 319 319 320 320 319 316 314 309 303 302 306 313 317 318 319 320 322 320 318 315 314 315 314 314 314 314 315 314 312 314 312 308 308 308 308 310 309 306 305 307 308 308 308 308 311 311 308 307 306 305 307 306 305 305 304 304 304 303 303 303 303 303 303 303 303 303 302 300 299 299 301 301 300 298 297 297 297 296 296 295 295 295 294 294 294 293
322 321 319 319 319 320 320 317 315 310 303 302 307 313 317 318 317 318 319 319 317 315 314 313 314 315 315 315 314 312 312 314 310 307 308 308 309 311 310 308 306 307 307 308 309 309 309 311 308 304 303 303 305 304 302 303 304 303 303 302 302 303 303 302 302 303 302 300 300 300 299 301 301 300 299 298 297 297 297 296 296 295 295 294 294 294 293 293
322 322 321 321 319 320 320 318 316 310 302 303 309 313 316 317 317 317 316 316 316 316 316 314 314 316 316 316 314 310 310 311 309 308 309 308 309 311 309 309 307 307 307 308 310 310 309 310 306 302 302 301 301 302 302 304 304 302 301 302 301 301 301 300 300 301 300 299 300 300 300 301 301 300 299 298 297 297 297 296 296 295 295 294 294 293 293 293
321 322 322 322 321 321 320 319 316 308 302 304 310 313 315 316 316 316 316 314 314 315 315 315 315 316 316 316 317 312 309 310 309 309 311 310 310 310 308 307 307 307 307 307 308 309 308 309 306 304 303 301 299 300 301 301 302 302 301 301 299 298 298 297 296 297 298 299 301 301 300 300 300 299 299 298 298 297 296 296 295 295 295 294 294 293 293 293
319 320 321 322 322 322 321 320 316 307 302 306 309 312 314 315 314 315 315 314 313 314 314 314 315 316 316 317 317 313 309 311 311 309 310 312 311 309 308 306 306 306 305 304 306 306 306 306 306 304 303 301 299 300 301 300 300 300 300 299 298 297 297 297 296 297 298 299 300 301 299 299 299 299 299 298 298 296 296 295 295 295 294 294 293 293 292 292
319 319 319 320 321 321 322 321 314 305 304 307 309 312 314 313 313 314 314 314 314 313 313 314 315 316 316 316 316 313 311 313 313 310 310 312 312 309 307 307 306 303 302 303 305 305 304 304 305 303 301 300 299 300 301 300 299 298 298 297 298 297 296 297 297 297 298 298 299 300 299 298 299 299 298 298 297 296 295 295 294 294 294 294 293 293 292 292
319 317 316 319 321 321 321 319 310 305 306 308 310 313 314 312 312 311 311 313 314 313 313 314 314 315 315 316 315 313 312 313 312 311 312 312 311 309 307 306 305 302 301 302 303 303 303 303 304 302 299 299 300 300 301 301 300 298 297 297 297 297 296 297 296 296 296 297 297 297 297 298 299 298 297 297 296 295 295 294 294 294 294 293 293 292 292 292
317 314 314 317 321 319 314 311 308 307 308 309 311 313 313 312 312 311 310 311 313 313 313 314 314 315 315 315 315 313 313 312 311 311 311 310 311 310 307 305 304 301 300 301 301 302 302 302 304 302 299 300 301 300 299 300 300 299 298 297 297 297 297 297 297 296 295 295 296 296 296 297 298 297 297 297 296 295 295 295 294 294 294 293 293 292 292 292
315 314 314 317 319 315 308 307 309 310 309 310 312 312 312 311 311 312 311 310 312 313 312 312 313 314 314 314 314 314 313 312 311 311 310 310 311 309 306 304 303 301 301 300 301 301 300 300 302 302 301 300 299 297 296 297 298 298 298 297 297 297 297 296 297 297 296 295 296 295 295 296 297 297 297 296 296 296 295 295 294 294 293 293 292 292 292 292
313 314 315 316 316 312 309 311 312 311 310 311 312 312 312 312 310 312 312 311 311 312 312 312 311 312 313 313 312 313 312 312 312 311 310 310 308 303 302 303 302 301 301 300 300 299 299 299 300 301 301 298 295 295 296 297 297 296 296 296 297 297 297 296 296 296 296 296 295 295 295 297 297 297 297 297 297 296 295 294 294 293 293 293 292 292 292 291
313 313 313 315 314 310 310 314 315 313 311 311 311 311 312 313 312 312 313 312 311 312 311 312 312 311 312 312 311 312 312 312 312 311 310 310 305 298 299 302 300 300 300 299 300 300 300 300 299 299 300 299 297 295 295 296 296 295 295 296 297 297 297 296 296 295 295 295 295 295 295 296 297 297 297 297 297 296 295 294 293 293 293 292 292 292 291 291
313 313 312 312 311 309 310 314 315 315 314 313 313 312 312 312 312 312 312 312 312 312 312 312 311 311 310 310 310 310 310 311 312 310 308 306 301 296 297 298 298 299 298 297 299 300 300 300 299 299 301 302 301 298 297 297 296 295 295 296 297 297 296 296 295 295 295 295 295 295 295 296 297 297 297 297 297 296 295 294 293 293 293 292 292 291 291 291
314 315 312 308 308 308 309 311 312 314 315 315 315 315 313 313 312 311 312 313 313 313 313 312 310 310 310 309 309 309 308 309 310 309 306 304 299 295 296 295 296 297 296 295 297 298 298 298 298 299 301 302 302 299 297 296 295 295 296 296 296 297 297 296 295 295 295 295 295 295 296 296 297 297 296 296 296 295 294 294 293 293 292 292 291 291 291 290
315 316 313 310 309 308 308 310 311 311 313 315 316 316 315 314 314 312 311 312 313 312 313 312 310 310 310 309 309 309 307 307 308 308 307 304 298 295 295 295 295 295 295 296 297 296 296 296 297 298 299 299 299 297 296 296 295 295 295 295 295 296 297 297 296 295 294 294 294 295 295 296 296 296 296 296 295 294 294 294 293 292 292 291 291 291 290 290
314 315 314 313 313 312 309 309 310 311 311 313 314 315 316 315 314 314 313 311 311 311 312 312 310 310 310 310 309 309 308 307 307 307 307 305 299 296 296 296 295 295 295 297 297 296 296 297 297 298 297 297 297 297 296 296 295 295 295 295 295 295 296 297 296 295 294 294 294 294 294 295 295 295 296 295 294 294 293 293 293 292 292 291 291 291 290 290
314 314 314 314 315 315 313 311 310 311 311 312 313 313 315 315 314 314 313 311 310 310 311 312 311 310 310 310 310 309 308 307 308 308 306 304 301 298 298 298 296 295 295 296 296 296 295 296 296 296 296 296 296 296 296 295 295 295 295 295 295 294 295 296 295 295 294 294 294 293 293 294 294 295 295 295 294 294 293 293 292 292 292 291 291 290 290 290
313 313 313 312 313 315 315 313 311 311 311 312 313 313 313 314 314 314 314 313 311 310 309 311 312 311 310 309 309 309 309 309 311 311 307 304 302 300 300 300 297 296 296 295 295 296 295 296 296 295 296 297 296 296 296 295 295 295 295 296 295 294 294 294 294 295 295 294 294 294 294 294 295 295 295 294 294 293 293 293 292 292 292 291 290 290 290 289
312 314 314 312 312 313 314 314 312 311 312 312 313 313 312 313 313 314 314 313 312 311 310 309 311 311 310 309 309 309 309 309 309 308 305 303 303 302 301 300 298 297 296 295 295 296 295 295 296 296 297 297 296 296 296 295 295 295 295 295 295 294 294 294 294 295 295 295 294 294 294 294 295 295 294 294 294 293 293 293 292 291 291 290 290 290 289 289
311 314 314 313 314 314 313 313 312 312 313 313 312 313 313 313 313 313 313 313 312 312 311 310 310 310 309 309 308 308 307 304 302 302 301 301 301 300 299 298 298 298 296 295 295 295 295 295 295 296 296 296 296 295 294 294 294 294 295 295 295 294 294 294 294 294 295 294 294 294 294 294 294 294 293 293 293 293 293 292 292 291 291 290 290 289 289 287
Wind_Speed
13 15 16 17 18 19 19 19 19 20 21 21 22 22 23 24 25 25 25 26 26 27 30 29 22 17 9 0 2 4 4 7 7 5 6 10 10 10 12 13 13 12 12 12 11 9 7 6 5 7 6 5 4 3 4 4 4 3 3 3 1 2 3 2 1 4 7 8 7 7 9 8 9 9 9 9 2 1 5 12 13 12 15 18 17 17 17 18
13 15 16 17 18 19 19 18 19 19 20 20 20 21 22 23 24 24 25 26 27 27 29 29 22 16 10 1 3 3 3 6 6 8 12 12 11 11 12 13 13 13 12 12 10 7 6 5 6 7 6 6 4 3 3 3 5 3 3 3 1 4 3 2 1 4 8 10 11 11 9 7 8 10 10 9 5 7 11 13 16 18 22 20 18 19 19 20
13 14 16 17 18 18 18 18 18 18 19 19 19 20 21 23 23 23 24 25 26 27 29 28 21 15 10 3 2 3 2 5 7 10 12 12 11 12 13 13 13 13 12 11 10 8 7 7 7 7 7 6 2 2 2 2 4 1 3 3 4 4 2 3 1 5 10 12 12 11 10 7 6 9 9 8 5 11 13 13 17 21 24 21 20 21 20 22
13 14 15 16 17 18 18 18 17 17 18 18 19 20 21 22 23 23 24 25 26 27 29 27 20 13 9 5 2 4 1 2 6 11 11 10 11 11 11 12 12 12 12 11 10 10 10 8 7 7 7 5 2 2 2 1 3 1 4 2 7 2 2 4 2 6 11 12 10 11 11 6 5 6 7 8 4 9 13 15 17 19 19 18 19 21 21 23
13 14 15 16 17 18 18 17 17 17 17 18 19 19 21 21 22 22 23 25 26 28 29 26 18 11 8 6 3 4 2 1 3 8 9 9 10 10 10 11 11 11 11 11 11 12 10 7 7 6 5 5 2 3 1 3 3 3 1 5 7 2 1 3 2 7 11 11 9 10 8 7 7 3 6 9 8 8 11 14 16 16 16 17 19 20 22 24
13 14 15 15 17 18 18 17 16 16 17 17 18 19 20 20 20 21 22 24 27 29 28 23 15 9 7 6 5 4 2 1 2 5 7 8 8 8 9 11 11 12 12 12 12 11 9 7 7 5 5 5 2 2 2 3 2 3 2 6 6 4 2 1 3 7 10 10 9 8 7 8 6 4 9 11 12 10 10 13 14 15 16 17 18 21 23 24
13 14 14 15 16 17 17 17 16 16 17 17 18 19 19 19 20 20 21 24 27 29 27 21 12 6 5 8 8 6 4 2 2 3 5 6 6 7 9 11 12 13 13 12 10 9 8 7 7 6 6 4 1 2 4 4 3 3 0 6 5 3 2 1 4 6 7 8 8 9 9 7 3 5 9 11 13 11 12 13 14 15 16 17 19 20 22 23
13 14 14 15 16 16 17 16 16 16 17 17 17 18 18 18 19 20 22 25 27 29 27 20 10 3 3 7 7 6 6 3 2 3 4 4 5 6 8 11 12 13 11 10 10 10 8 6 7 6 5 1 1 2 4 7 4 5 2 5 2 0 1 1 3 4 5 6 9 10 7 2 3 5 8 11 12 13 14 15 16 16 16 17 19 20 21 23
12 14 14 15 16 16 16 16 16 16 17 17 17 18 18 18 19 20 22 25 27 29 27 21 12 3 2 3 2 2 3 2 3 3 3 3 3 5 8 10 11 11 9 8 9 10 7 6 6 4 4 2 2 4 3 5 1 1 5 5 3 2 2 3 3 2 1 6 12 10 4 3 6 6 8 11 11 14 15 16 16 17 17 17 18 19 20 22
12 13 14 15 16 15 16 16 16 16 17 16 16 17 17 17 19 20 21 25 28 29 27 21 13 4 2 2 2 1 1 1 3 3 2 2 2 5 7 9 10 9 7 6 8 9 6 5 4 3 4 2 3 4 2 3 1 3 7 8 7 4 4 5 6 6 4 6 14 11 6 2 8 7 4 10 11 14 16 17 16 17 17 16 16 18 19 20
12 13 14 14 15 16 16 16 16 16 16 16 16 17 17 17 18 19 19 23 29 28 24 19 11 5 1 2 1 1 2 2 3 3 1 1 3 5 6 7 9 9 7 5 7 9 7 5 3 2 1 1 4 4 3 3 4 5 8 9 5 7 6 7 8 8 7 4 13 12 8 3 7 5 4 10 10 13 16 17 17 17 16 15 15 17 18 20
12 13 13 14 15 16 16 15 16 16 17 16 15 16 17 18 18 19 19 21 28 28 21 15 8 2 5 4 4 4 5 3 3 2 1 2 3 5 5 7 9 9 7 5 6 8 9 6 2 1 1 3 5 3 3 4 5 6 7 6 4 10 7 6 6 9 7 3 9 11 7 5 6 4 4 7 9 14 16 16 15 15 14 13 14 14 16 18
12 13 13 14 15 16 16 15 16 16 17 16 16 17 17 19 18 19 21 19 26 28 20 12 4 2 4 4 7 8 6 4 3 3 3 3 4 5 5 6 8 9 7 5 6 8 10 6 1 2 3 4 4 3 5 4 5 5 4 4 3 7 7 5 4 9 7 3 7 9 6 2 6 6 2 6 12 14 15 14 13 12 12 12 12 13 15 17
12 12 13 14 14 16 15 16 16 16 18 17 17 18 18 20 18 20 21 18 25 26 17 9 3 2 3 4 8 8 5 3 3 4 4 5 5 5 6 6 7 9 7 5 6 8 10 7 1 3 5 4 3 5 6 4 4 3 3 2 3 2 4 6 3 5 4 3 7 9 6 3 2 2 9 14 14 14 15 12 11 12 11 11 11 12 14 16
12 12 13 13 14 16 15 17 16 17 18 18 18 19 20 21 20 21 18 17 26 23 12 5 1 1 4 6 6 5 3 1 4 5 5 6 7 7 7 8 7 9 8 6 6 8 10 6 2 3 4 4 5 5 5 4 5 3 2 1 1 2 2 6 4 1 2 5 7 8 5 5 8 6 15 19 14 16 16 12 11 11 10 10 10 11 14 14
12 13 13 13 14 15 16 17 17 18 19 19 20 19 22 22 22 21 14 16 26 18 5 3 3 1 2 3 3 3 3 2 4 5 6 8 9 9 8 9 8 9 9 6 6 9 11 6 4 6 5 5 4 4 6 4 4 3 1 2 2 2 2 2 4 3 5 6 5 4 4 5 9 4 15 16 14 17 15 12 11 10 9 9 10 11 14 15
12 14 13 13 14 15 16 17 18 20 20 22 22 21 23 22 23 19 10 17 25 13 1 2 5 2 2 1 3 2 4 5 5 6 8 9 10 10 9 10 8 10 11 8 7 8 9 5 5 5 4 4 3 4 5 4 2 1 2 4 4 4 6 3 2 3 2 4 5 4 5 7 9 5 16 14 14 16 14 13 11 9 8 8 10 12 15 16
13 14 14 14 14 15 16 17 19 21 21 23 22 23 23 19 22 15 8 20 22 8 1 1 7 1 3 1 2 3 6 7 7 7 9 10 12 10 8 10 10 11 11 7 4 6 8 5 5 4 3 2 5 4 4 3 3 5 4 5 6 5 6 7 3 2 1 4 6 6 5 8 10 5 15 13 13 15 13 12 10 8 7 8 10 12 14 15
13 14 14 14 14 15 16 17 20 21 23 24 23 25 23 21 22 6 7 24 17 5 3 5 7 3 1 2 1 5 6 7 7 7 10 11 12 12 8 11 13 11 9 6 5 7 8 5 5 5 3 2 5 3 3 4 3 6 6 6 7 7 6 8 5 4 2 6 6 6 7 9 11 2 13 11 13 13 13 11 9 7 6 8 10 12 13 13
13 14 14 14 14 15 16 17 19 21 24 25 26 26 21 22 18 4 16 26 11 5 8 8 8 6 3 1 1 4 3 6 7 6 10 12 13 14 9 12 13 8 5 5 7 6 5 6 4 3 3 5 5 3 3 4 5 6 7 7 8 9 7 5 4 5 4 5 6 8 10 12 12 3 13 12 13 12 12 10 8 7 7 9 10 11 11 12
13 13 14 15 15 15 15 16 18 20 22 24 26 23 16 15 9 7 20 20 11 13 8 8 8 5 4 4 1 5 1 4 6 7 11 11 13 12 7 10 9 6 4 4 7 6 4 6 2 3 3 5 4 3 4 5 6 7 7 7 7 7 7 6 3 4 2 4 6 10 11 14 12 6 14 12 11 10 10 9 8 8 8 8 9 9 11 13
13 13 14 15 15 15 15 16 17 18 19 20 22 19 14 13 9 10 13 10 16 17 4 4 3 3 4 5 2 4 2 2 4 6 10 10 10 8 7 9 7 7 8 6 6 5 5 5 2 3 3 2 3 3 4 6 8 7 6 6 6 5 6 4 3 4 3 6 7 10 10 14 7 10 13 10 11 10 10 9 8 8 8 7 8 10 13 16
13 13 14 14 15 15 15 15 16 16 17 19 19 17 14 14 13 14 10 8 13 9 2 2 3 3 2 4 1 4 1 3 2 3 9 9 7 6 7 7 8 10 8 5 5 5 7 3 4 2 0 2 5 3 5 7 7 6 5 6 6 5 6 2 2 4 9 7 6 9 10 10 2 11 9 9 12 11 11 9 8 7 7 7 8 11 14 17
14 14 14 14 15 15 14 15 15 15 16 17 16 14 14 14 14 15 11 7 7 4 3 3 6 4 3 3 2 3 1 4 3 4 8 7 5 5 5 5 7 10 5 3 5 7 10 4 4 1 2 3 6 6 6 6 6 7 5 5 6 5 5 6 7 11 11 3 3 7 10 7 6 12 8 9 11 11 10 8 7 5 5 7 8 12 14 16
14 14 13 13 14 14 14 14 13 13 14 14 13 12 13 13 14 15 10 5 5 3 3 3 5 4 4 3 1 1 2 4 5 5 6 5 5 4 6 4 4 8 5 3 5 9 9 3 3 1 3 3 5 7 5 2 5 7 2 2 4 6 6 9 11 11 9 3 4 8 9 4 7 12 11 9 10 10 8 6 5 4 6 8 10 12 14 16
14 14 13 13 13 13 13 12 11 12 13 12 12 12 12 12 14 15 8 4 3 2 3 3 4 3 2 2 1 3 4 2 4 7 5 2 4 5 7 3 2 5 6 3 5 6 3 2 2 2 3 4 6 8 3 1 6 6 2 4 4 5 7 9 11 9 6 7 6 6 7 6 4 8 12 13 11 11 8 6 5 4 6 8 11 12 15 19
15 14 13 12 12 11 10 10 11 12 12 11 11 10 10 11 14 13 5 3 3 2 3 2 3 2 3 1 2 3 3 1 3 5 2 1 5 4 6 5 3 4 2 2 5 2 1 0 1 2 3 5 7 6 1 2 5 3 4 5 6 6 8 9 9 8 7 10 10 7 9 8 8 7 11 16 13 11 8 4 5 5 6 10 13 15 18 22
14 13 12 11 11 11 9 9 11 11 10 10 9 8 8 11 12 8 3 4 1 3 2 2 1 2 3 3 4 4 5 4 4 2 3 4 6 1 5 6 7 5 1 2 6 1 3 2 1 2 3 5 4 2 3 2 4 2 6 5 6 6 8 9 8 8 8 10 9 6 6 7 7 5 10 14 12 10 6 2 3 5 9 13 15 18 21 23
14 13 12 11 10 10 9 9 9 10 10 9 8 6 8 10 8 3 2 3 0 3 2 2 1 1 1 5 6 6 5 3 3 2 1 4 4 2 5 4 4 5 3 6 9 4 2 3 2 2 3 4 3 4 4 1 2 4 6 6 7 7 8 8 7 8 9 8 9 9 8 8 7 4 8 10 10 8 3 2 3 7 11 14 16 19 23 26
14 13 12 11 11 10 9 9 9 9 9 7 5 4 7 7 4 2 4 3 0 2 2 2 1 0 2 5 5 5 5 4 2 2 2 3 3 3 5 4 2 4 5 7 9 7 1 1 1 2 3 3 2 3 2 1 3 6 6 7 7 7 8 8 7 7 7 7 9 9 9 8 6 4 5 4 4 4 1 3 3 7 12 15 17 20 25 27
14 13 12 11 11 10 9 9 9 9 8 5 3 4 6 3 1 4 4 0 1 1 3 2 1 1 2 3 3 3 4 5 3 3 4 3 3 4 3 3 2 3 6 6 6 5 3 3 3 1 1 2 1 3 2 2 4 5 5 6 7 6 6 6 5 3 5 7 4 2 4 5 7 3 2 3 5 5 1 3 4 7 12 15 18 23 25 25
15 14 13 12 11 10 9 10 9 8 7 4 3 4 5 2 4 6 3 1 0 2 3 1 2 1 1 1 4 5 4 4 3 3 3 0 2 4 2 2 2 3 6 3 1 2 4 4 3 3 1 3 3 3 3 4 5 5 5 4 5 6 6 5 4 3 7 6 2 7 4 3 9 8 4 7 7 4 3 3 4 8 13 17 21 25 26 25
16 15 14 13 13 12 10 10 9 8 6 3 4 4 4 4 5 4 3 2 0 1 1 1 2 1 0 2 6 3 1 4 4 2 0 1 3 3 1 1 1 2 5 4 5 5 3 2 5 4 2 5 5 4 3 3 3 4 3 2 3 5 6 7 5 5 7 3 3 4 5 4 8 9 6 9 7 4 4 4 7 11 15 18 21 25 26 26
17 16 16 15 14 13 12 11 10 8 5 4 5 5 5 7 5 0 3 3 0 1 2 2 1 2 4 6 5 1 2 4 3 2 1 3 4 4 3 4 4 3 4 5 6 5 6 3 4 5 2 5 6 3 2 3 1 1 1 1 4 4 5 6 5 6 7 6 4 2 3 4 6 2 8 11 7 5 4 4 8 12 15 17 20 23 25 26
17 17 17 16 14 15 13 12 10 7 5 6 6 5 6 8 4 1 3 2 1 2 3 3 2 4 7 8 3 2 4 2 3 2 4 5 5 5 4 5 7 6 4 4 3 1 7 6 3 2 1 3 4 1 1 2 2 1 2 1 3 3 5 6 7 7 6 9 8 3 3 5 2 5 11 10 7 6 3 4 8 14 16 19 21 22 25 27
17 17 17 17 16 15 14 13 11 7 7 7 6 7 8 7 4 2 1 1 1 1 1 2 5 5 6 4 4 4 4 3 2 2 5 7 8 8 4 3 7 9 6 4 2 1 5 4 5 4 1 2 1 1 1 3 1 2 2 2 1 3 2 5 8 5 2 7 6 5 5 6 3 5 9 9 5 2 2 6 10 15 17 19 20 22 25 28
17 17 18 18 17 16 15 14 12 8 9 8 7 8 7 6 7 5 2 2 1 1 2 5 3 3 4 4 4 5 5 2 4 3 2 3 5 7 7 4 6 10 6 3 3 2 3 4 5 6 3 2 1 1 3 3 2 1 2 1 3 3 1 2 4 3 3 8 6 5 7 8 5 4 7 9 4 3 6 9 12 15 17 19 20 23 26 29
18 20 21 21 20 19 17 16 12 10 9 7 10 11 7 6 8 6 5 4 2 3 4 6 3 3 5 6 4 5 6 1 3 4 4 4 3 5 8 5 5 7 4 1 2 1 1 4 3 3 1 3 3 2 4 3 1 0 1 1 1 1 2 3 3 3 5 8 7 5 6 7 8 4 5 7 4 7 8 10 12 14 17 19 22 25 29 31
19 19 18 20 22 21 20 18 12 12 10 7 9 10 7 9 10 8 8 6 3 4 5 8 7 5 6 7 4 4 7 6 5 4 4 5 3 6 10 5 5 7 5 4 2 0 1 3 2 1 2 3 3 4 6 5 4 3 0 1 1 1 3 4 2 1 5 7 7 7 5 4 5 2 2 3 5 6 8 10 10 13 17 21 24 27 30 32
19 13 11 15 17 18 19 17 13 11 8 7 10 8 3 6 10 11 13 10 5 6 7 7 8 8 8 8 7 5 7 9 8 7 5 5 4 5 10 7 7 8 6 3 2 0 2 4 3 1 1 2 4 4 5 4 5 5 5 5 3 2 2 4 3 2 3 6 6 7 9 5 3 3 1 4 4 5 8 10 10 14 19 21 25 29 32 33
17 8 8 14 15 15 15 13 11 9 7 8 11 9 4 5 8 10 15 16 12 10 10 8 9 10 8 8 8 6 6 8 8 8 7 7 8 5 8 9 11 12 7 3 3 3 2 3 4 2 3 5 3 1 1 3 1 4 6 6 5 5 4 4 5 3 2 5 6 6 11 8 3 1 4 4 2 5 9 12 12 16 20 22 26 30 32 34
15 7 8 14 15 15 14 9 7 8 8 9 9 9 7 6 7 9 12 14 11 9 8 7 8 10 9 9 8 7 7 8 8 8 7 9 10 4 4 10 15 15 9 2 2 1 1 0 4 6 5 4 1 2 2 3 3 3 5 5 5 6 6 5 7 3 2 6 7 6 11 8 3 2 4 2 2 7 11 13 15 17 21 23 27 31 33 34
14 10 10 12 16 19 15 6 7 8 7 8 7 10 11 7 6 9 11 11 7 6 7 6 8 9 8 7 8 10 9 8 9 10 9 9 6 1 5 13 16 13 6 1 2 3 2 1 3 6 4 2 3 1 0 0 2 4 5 6 6 6 6 6 5 2 2 7 6 5 11 7 3 3 5 5 5 10 12 14 16 18 21 24 29 33 34 35
15 13 13 13 18 22 14 6 8 9 9 8 9 13 12 8 9 12 11 11 10 7 7 7 7 9 9 7 9 11 8 6 8 10 9 7 3 4 6 13 14 8 3 1 4 6 4 3 3 3 5 3 3 3 3 4 5 5 6 7 7 6 5 2 2 2 3 7 8 8 12 8 0 4 8 7 8 12 14 16 16 18 22 25 29 33 34 36
12 11 12 15 22 25 16 9 8 9 11 12 13 15 12 7 12 18 15 14 17 13 7 5 7 9 8 6 8 10 10 9 8 3 2 3 3 3 4 9 10 5 2 2 4 6 4 3 5 5 6 7 5 3 3 4 5 5 6 9 10 9 9 4 2 5 7 7 10 10 11 10 6 5 9 11 12 13 15 16 16 19 22 26 30 33 33 35
9 7 6 9 19 25 20 15 12 9 10 13 13 13 15 12 11 17 19 18 21 19 11 5 5 6 6 7 8 11 11 11 10 5 2 3 3 1 3 7 5 3 3 3 4 4 2 3 6 9 9 9 6 2 2 4 5 5 7 11 12 10 11 7 3 7 8 7 11 12 12 15 14 12 14 14 13 13 13 14 17 20 23 27 31 32 32 33
10 5 8 8 10 16 18 18 16 10 7 11 9 8 14 16 8 12 20 18 16 17 13 7 7 8 8 10 10 11 11 11 11 10 8 4 4 2 3 4 3 2 2 2 3 3 2 4 8 12 13 11 9 4 3 5 7 8 9 12 14 13 12 10 10 9 6 6 12 12 12 16 15 14 15 14 13 13 11 13 18 22 24 29 32 33 33 33
15 7 14 18 10 8 12 15 17 16 13 14 11 10 16 18 13 12 16 11 9 13 10 8 13 17 15 13 8 8 9 8 8 12 9 3 5 3 3 2 2 3 2 2 2 2 3 6 7 9 13 13 11 8 6 6 8 10 11 13 15 15 14 14 17 14 10 11 14 12 13 17 16 14 15 14 14 12 11 15 20 22 26 31 33 33 33 32
23 9 12 21 17 11 12 17 21 22 21 17 14 16 19 20 20 14 9 5 5 12 13 12 15 17 18 17 12 10 9 7 9 13 8 4 4 4 2 1 4 7 5 3 2 2 2 3 4 7 11 12 11 10 8 9 11 12 14 16 16 16 16 17 19 19 19 20 19 18 20 20 16 16 17 15 13 11 12 16 20 23 28 30 31 32 31 31
30 20 14 16 16 15 12 15 18 17 17 17 16 16 16 20 23 17 10 10 8 8 14 21 18 12 15 18 16 16 16 13 15 14 7 7 3 4 3 2 5 8 7 4 2 3 3 1 2 2 8 9 8 9 9 11 13 16 18 17 16 17 19 19 19 18 19 21 21 22 22 19 16 16 16 13 12 11 12 16 19 23 27 30 31 31 30 31
39 33 23 14 9 12 13 11 11 9 11 15 16 13 12 19 25 19 12 18 21 13 13 20 20 11 12 17 19 22 21 13 8 6 12 11 7 8 7 5 9 9 6 5 4 3 3 2 2 1 5 6 4 7 10 10 13 20 22 18 17 18 18 17 16 16 17 19 20 19 16 13 12 12 12 11 12 11 12 16 18 22 26 29 29 28 29 31
44 38 31 19 9 12 15 10 10 11 11 11 14 15 17 19 21 17 13 17 28 26 18 18 16 11 11 17 20 20 14 8 10 11 16 12 7 9 9 9 13 11 7 6 4 3 4 3 2 2 3 3 1 2 3 6 10 14 14 15 20 21 20 17 15 15 18 17 14 13 11 10 10 10 10 11 10 10 12 14 17 21 25 27 26 25 28 31
Wind_Direction
15 12 9 8 8 8 8 6 4 1 358 355 353 351 350 349 350 352 352 351 349 350 355 2 4 359 5 241 172 114 90 65 42 17 27 27 18 6 5 6 6 2 4 8 10 17 1 351 345 327 318 295 280 299 309 328 335 293 254 268 283 86 81 42 352 330 313 303 322 347 0 356 334 347 359 344 327 236 33 42 29 21 15 13 18 15 19 22
9 7 7 6 7 8 8 8 5 1 358 355 352 349 348 347 349 350 349 349 348 348 353 1 4 0 9 355 199 151 90 58 36 20 30 19 1 1 3 3 5 5 10 12 12 18 0 344 334 329 314 281 275 301 294 314 316 295 286 281 72 65 63 47 28 311 299 299 319 336 355 357 334 339 356 353 18 50 41 30 10 2 1 6 22 25 28 27
5 5 6 6 7 8 8 8 7 3 358 354 352 348 347 347 347 349 349 349 348 349 353 359 5 4 11 29 182 171 100 55 32 15 15 7 3 7 6 8 11 12 15 12 7 9 359 348 340 339 317 285 250 287 278 301 306 325 303 284 88 57 97 108 313 287 291 301 317 331 335 335 335 340 354 342 359 50 43 18 4 358 356 3 24 28 26 27
3 3 4 5 7 7 7 7 7 5 359 354 351 347 347 347 347 348 350 351 351 352 355 359 6 8 11 28 137 172 149 75 28 7 1 4 10 16 19 21 20 18 16 10 7 1 354 349 339 333 309 286 207 240 249 10 340 334 295 15 81 37 143 115 299 282 290 302 317 324 323 331 340 341 1 350 3 54 35 17 7 0 4 18 28 27 25 27
1 2 2 4 6 6 6 6 6 4 0 355 351 349 348 347 347 349 351 353 353 354 357 1 7 11 10 24 102 165 211 218 13 358 358 6 13 30 37 31 25 17 12 9 8 359 354 345 320 307 294 296 279 247 199 63 339 278 253 72 72 17 92 102 285 280 292 306 316 316 324 335 329 3 40 29 46 47 27 19 14 17 27 34 34 32 31 30
359 359 360 3 5 4 4 5 4 3 1 357 352 351 350 349 348 350 352 354 354 354 358 3 8 12 17 44 82 133 197 313 3 351 2 12 18 39 40 30 22 14 13 13 8 355 352 342 324 324 307 299 295 296 18 52 316 278 128 89 69 31 49 89 281 279 293 311 318 324 329 320 317 74 69 55 51 43 45 35 31 45 44 41 40 37 35 33
357 356 357 0 2 2 2 3 2 1 2 359 355 354 354 352 350 352 353 354 355 353 359 7 8 7 37 73 79 93 97 66 34 9 19 18 24 39 29 23 19 15 17 18 13 356 352 346 341 337 299 289 272 309 353 329 265 250 25 89 80 28 39 261 276 282 299 312 313 312 305 301 317 94 84 59 46 53 65 55 57 61 50 46 42 38 36 32
353 353 355 357 358 358 358 0 0 -0 1 1 359 356 357 356 353 355 355 356 356 354 0 9 10 0 80 88 85 85 77 68 69 45 32 22 31 34 20 20 17 16 19 20 21 7 0 353 347 335 295 344 19 296 337 315 243 212 320 58 80 323 96 231 253 279 300 311 311 307 296 327 67 107 90 48 48 76 76 69 73 65 55 50 41 36 33 29
350 351 353 354 355 355 355 358 359 358 359 1 1 358 359 359 356 357 358 359 357 356 1 7 12 352 196 111 121 122 55 60 94 72 48 33 33 17 12 17 13 15 20 19 19 10 5 348 342 338 307 342 342 310 326 311 207 174 326 352 306 253 160 202 195 205 252 339 332 326 325 78 120 136 89 50 62 89 85 81 76 64 60 51 42 36 30 29
346 347 350 353 353 352 351 355 357 357 357 359 1 359 359 359 358 357 359 1 357 357 1 4 9 355 238 183 218 222 73 132 113 85 59 33 354 353 5 12 10 16 23 16 13 11 6 345 330 323 296 259 280 284 272 281 316 341 315 305 278 230 163 176 171 172 164 2 350 341 334 98 165 188 89 58 76 97 88 82 73 63 60 48 43 37 29 28
342 344 346 350 352 351 349 351 355 354 354 356 359 359 357 357 356 354 355 -0 359 357 1 1 357 2 111 176 248 207 156 159 102 83 44 354 325 335 349 1 8 13 17 12 4 5 4 357 343 321 291 255 278 250 213 250 287 309 309 300 242 172 150 165 170 178 185 357 353 333 313 199 183 199 70 53 72 96 85 75 69 62 58 48 42 35 29 27
337 340 341 346 350 351 347 348 351 351 351 351 354 355 355 355 352 349 346 351 356 354 357 357 342 36 101 105 80 126 158 130 89 75 8 343 315 316 333 350 1 4 8 5 358 4 1 358 356 312 281 297 299 261 216 236 272 285 290 299 157 145 153 175 172 182 195 354 343 318 299 207 172 137 64 54 84 94 81 73 69 64 59 50 40 34 30 26
334 336 337 342 348 350 347 346 346 348 347 344 348 349 350 352 348 346 341 339 349 350 352 350 303 162 97 95 106 132 138 99 68 43 25 356 315 302 320 338 350 353 352 352 353 1 358 353 330 255 248 280 297 283 284 256 254 249 244 279 179 150 167 175 161 181 187 2 337 324 322 218 149 133 92 102 112 99 84 78 75 70 63 50 39 32 29 25
332 334 334 337 345 348 347 346 343 344 342 339 342 343 344 346 342 342 339 336 344 346 349 348 246 163 66 125 136 136 121 81 34 16 7 355 331 302 311 333 342 345 341 337 346 353 352 351 300 229 225 263 293 276 271 217 203 202 160 216 217 152 157 158 147 191 196 354 349 340 323 307 328 50 91 115 121 103 95 89 82 75 63 50 38 29 24 22
330 333 332 333 340 345 346 346 343 342 340 336 337 339 341 339 337 340 338 339 343 343 348 1 163 110 83 140 163 168 157 39 12 5 354 350 336 308 313 334 336 343 340 326 334 344 348 348 260 255 245 252 272 271 268 205 184 202 187 189 189 14 116 137 111 87 356 348 4 353 316 306 315 356 95 117 121 107 105 98 89 77 63 49 34 27 19 16
327 330 330 330 335 340 343 344 343 342 340 337 337 338 338 334 335 336 334 341 342 342 359 43 59 82 129 153 209 219 231 286 331 339 344 341 331 310 315 338 338 342 340 317 323 339 347 343 253 267 265 249 271 287 299 268 194 183 245 335 339 325 319 129 123 89 29 355 358 349 290 291 309 18 106 121 117 112 110 102 94 74 62 46 32 26 16 11
322 327 328 328 331 335 340 341 341 341 339 340 338 337 338 334 333 330 326 341 344 351 58 59 16 351 178 216 215 225 268 250 268 314 338 335 327 312 314 340 335 336 337 311 313 337 342 320 252 269 240 230 322 327 311 299 249 274 347 332 302 300 306 282 191 149 60 357 320 275 240 276 308 78 118 127 120 118 112 105 98 77 67 46 33 23 13 8
316 323 325 326 328 331 336 339 340 340 339 340 338 338 339 333 332 323 307 339 349 10 146 344 358 318 164 84 190 262 268 237 252 296 330 333 332 320 313 340 335 331 330 301 309 342 332 293 232 266 235 224 359 349 308 314 307 300 311 314 295 292 283 271 268 153 144 316 292 269 251 283 307 101 125 129 123 118 110 108 102 86 73 46 33 19 10 5
310 318 321 323 325 327 333 336 339 340 338 339 337 340 341 340 341 323 304 339 356 28 307 310 328 276 193 38 221 286 262 237 255 289 331 335 340 334 318 338 337 321 310 303 339 343 329 304 238 266 291 339 354 339 301 309 300 288 286 283 275 282 271 268 287 114 79 307 277 282 287 293 304 141 134 131 125 117 110 110 99 89 70 43 30 16 8 359
305 313 316 319 321 324 330 334 339 340 340 343 343 346 352 352 353 326 323 339 355 352 310 281 283 269 292 317 212 321 264 247 259 279 326 337 344 341 329 336 329 301 297 331 329 324 324 304 271 303 340 339 329 302 297 295 282 277 276 272 269 279 276 276 288 124 86 314 276 295 298 297 304 175 144 138 130 119 114 111 98 85 58 35 22 9 3 357
301 307 312 315 317 321 327 332 338 340 343 347 348 356 9 2 356 319 329 334 324 329 314 253 264 241 232 206 230 347 314 264 261 269 316 337 342 343 345 336 321 301 343 340 287 276 288 287 291 38 353 328 313 287 294 285 282 280 274 282 280 282 294 308 296 141 75 324 289 300 302 301 301 160 147 146 135 122 116 110 94 74 50 32 16 3 360 0
296 301 308 311 313 318 323 330 336 339 342 344 349 3 10 359 347 328 330 312 302 319 313 236 261 193 207 198 232 348 358 271 249 265 316 339 341 345 343 331 324 322 331 316 284 284 293 285 80 52 3 308 263 255 286 281 281 281 276 283 282 304 328 315 160 127 332 305 299 308 305 300 288 150 150 150 132 117 112 103 90 71 43 25 13 6 3 2
292 297 303 306 310 315 319 328 333 335 339 343 352 2 358 351 344 336 331 290 291 305 262 224 180 168 206 185 232 353 342 269 243 292 325 345 351 339 330 330 328 317 308 305 319 313 295 310 73 49 66 247 257 249 276 280 276 274 277 281 284 326 345 294 171 341 315 296 311 314 296 293 224 145 149 143 131 121 120 112 101 83 45 29 17 12 7 360
288 293 298 302 306 310 315 324 328 331 338 345 354 355 351 347 338 340 335 282 271 274 251 220 184 192 198 193 296 14 322 273 257 305 329 351 358 330 327 343 324 308 304 333 319 281 277 314 57 97 184 257 281 276 277 284 287 285 285 280 294 330 328 296 306 317 305 279 31 340 301 282 165 163 164 144 144 138 132 125 110 91 49 35 21 13 5 357
283 287 292 297 300 306 313 318 321 327 335 344 351 350 349 344 337 342 337 272 255 243 219 198 189 198 200 215 285 16 305 269 240 277 317 350 12 354 328 324 298 302 329 358 303 277 276 338 53 221 229 268 284 286 290 310 294 293 323 31 342 334 314 305 313 322 310 274 54 12 318 286 167 180 174 154 162 155 146 143 118 84 49 33 16 9 359 353
279 282 287 291 296 302 309 314 315 322 332 340 347 348 345 341 337 341 340 267 251 170 157 182 192 188 194 227 294 309 291 228 244 283 299 3 19 358 320 308 189 296 330 340 296 286 281 49 51 280 279 284 282 281 282 42 292 292 37 32 353 319 305 314 317 321 309 289 323 343 294 276 251 215 176 162 174 165 156 146 114 72 44 28 10 3 356 354
273 277 282 287 293 297 303 307 305 314 329 336 341 342 341 339 335 340 343 261 247 138 130 163 177 188 196 235 320 306 298 332 294 282 197 356 353 349 299 294 266 276 2 340 292 280 124 81 240 283 295 281 282 284 356 33 289 301 32 355 337 321 307 313 310 299 292 297 299 274 252 258 279 259 174 163 172 168 166 147 99 61 27 15 5 1 359 357
268 269 274 281 287 289 291 292 297 309 317 325 334 335 336 333 328 333 319 276 255 120 125 136 153 213 207 278 289 265 296 325 304 246 174 296 323 305 262 290 300 297 92 247 280 333 57 351 284 291 287 273 290 341 45 0 262 334 18 338 309 303 290 291 291 285 291 298 288 253 235 247 271 251 162 165 182 181 171 131 74 36 16 6 1 359 358 354
262 262 268 273 277 279 279 281 291 301 304 316 327 329 332 326 321 324 260 277 133 120 110 129 165 183 212 291 265 229 258 280 276 287 255 288 301 245 266 301 312 297 257 231 259 285 27 28 346 309 278 278 344 49 46 336 255 336 342 296 272 261 262 271 275 286 293 282 271 255 230 240 271 241 175 183 199 196 177 59 40 17 10 4 358 357 355 350
256 256 260 264 269 269 271 279 286 293 303 315 316 324 327 315 301 263 246 255 84 105 100 133 180 280 284 280 240 197 226 234 243 299 247 243 261 239 265 284 266 272 259 238 250 261 267 66 264 261 278 304 10 57 49 3 310 318 302 283 280 262 263 268 263 286 287 266 268 252 218 234 267 248 216 212 165 148 0 346 6 5 2 360 357 356 352 345
251 250 252 257 263 264 272 282 286 292 302 308 307 310 308 294 218 257 252 227 9 141 140 151 110 339 300 304 270 235 263 254 216 247 246 217 221 221 232 254 238 247 251 238 236 238 226 228 215 167 281 305 240 221 201 227 274 290 276 288 302 288 284 273 249 247 252 263 283 138 151 236 247 235 174 130 109 107 62 338 353 358 355 357 357 353 348 339
248 245 246 251 255 259 271 279 281 291 297 295 284 275 283 262 219 237 226 108 310 177 159 129 91 26 19 13 269 258 283 273 203 215 268 148 247 250 239 260 297 301 276 266 279 255 225 208 161 106 185 210 221 227 204 209 232 250 258 287 307 305 302 275 246 233 249 264 120 107 82 264 248 258 217 151 132 119 94 35 8 0 356 356 355 349 341 333
246 243 243 247 251 255 263 272 278 286 289 267 240 244 259 257 241 227 199 190 280 121 120 101 123 137 65 282 271 239 214 251 202 174 165 151 246 249 183 156 155 278 279 301 316 291 267 157 147 154 173 185 211 237 237 218 204 224 253 296 293 300 301 283 278 274 267 260 117 69 9 301 269 269 214 159 130 107 85 54 20 4 358 354 350 343 334 330
245 244 245 246 251 255 259 268 275 278 272 238 232 234 226 239 249 275 215 214 117 120 138 114 162 193 208 247 269 191 214 242 185 166 206 191 219 235 221 189 174 213 258 279 295 277 268 273 172 177 150 161 198 235 310 328 302 201 30 344 262 260 268 275 297 297 292 296 287 323 339 281 299 12 127 129 123 111 76 38 13 0 354 350 343 336 332 328
247 247 247 246 249 253 258 265 268 268 247 222 228 229 220 237 249 243 240 220 119 185 162 153 221 255 246 235 211 163 233 245 135 186 225 209 231 254 237 188 183 194 208 237 277 241 247 254 143 127 60 161 194 189 19 304 263 153 89 240 246 258 257 267 292 297 306 304 283 233 223 257 291 112 128 131 139 130 74 14 359 353 348 344 338 332 330 327
251 253 252 250 249 252 256 259 263 259 230 215 226 228 227 245 253 221 206 157 156 192 290 237 218 250 271 237 181 167 200 226 178 229 238 217 237 244 211 154 175 189 196 220 248 249 255 247 122 129 202 154 157 114 226 278 271 141 168 212 93 45 319 272 287 304 316 288 270 190 231 262 237 175 156 151 163 160 20 358 352 347 344 338 334 331 327 325
253 259 261 255 249 252 254 254 257 244 214 213 230 233 233 246 243 232 169 130 148 150 290 278 210 210 265 268 237 181 166 227 201 204 257 216 229 218 186 159 172 188 198 236 248 246 283 267 166 164 188 143 94 278 241 261 286 199 205 183 91 73 59 242 273 305 273 268 262 207 240 262 263 242 171 175 212 325 342 349 346 340 337 333 332 330 326 325
254 262 266 260 252 252 252 251 248 221 203 217 239 240 241 234 227 215 158 141 157 166 219 254 213 182 238 265 269 167 151 224 196 192 250 237 220 177 167 170 177 181 165 136 248 299 344 275 210 156 154 130 132 235 219 206 203 212 336 15 99 230 227 186 207 276 270 271 279 258 249 252 254 248 170 200 274 335 333 339 339 332 333 333 332 329 327 328
256 262 265 258 251 250 249 246 230 204 202 221 236 237 234 230 228 207 180 171 173 181 219 244 227 223 235 243 268 172 175 231 237 223 240 229 218 159 159 171 168 164 149 148 205 262 158 254 246 52 29 109 161 220 215 198 164 125 16 262 191 252 246 234 225 261 263 274 289 282 274 258 246 223 154 247 309 337 329 334 332 327 332 332 331 329 328 328
251 255 256 246 245 246 241 232 209 194 209 225 230 235 208 219 226 210 204 208 198 201 232 244 224 235 249 244 254 239 221 241 242 238 234 228 245 181 165 168 152 147 139 150 219 251 174 228 236 39 42 168 196 210 217 221 185 176 206 214 199 176 217 258 260 186 233 266 277 284 283 268 155 120 256 293 326 339 330 330 326 327 330 329 330 329 327 326
241 243 246 232 234 233 214 202 195 197 222 230 230 239 223 219 226 208 208 216 218 222 239 251 235 238 253 251 249 241 242 252 238 234 242 232 243 224 169 157 147 142 130 135 218 207 177 220 233 223 208 212 216 102 0 314 254 205 209 204 210 206 195 240 245 189 165 245 246 263 277 271 157 136 299 307 338 336 330 328 327 327 326 326 328 327 326 325
227 229 243 224 223 212 186 184 200 200 223 229 230 237 222 219 228 203 195 207 223 233 235 249 244 239 247 251 255 252 248 258 243 230 240 230 230 237 150 152 150 149 147 142 199 177 73 301 242 244 232 204 162 49 16 328 305 269 243 221 228 218 190 212 238 219 184 237 236 246 268 273 138 162 270 251 283 322 328 329 329 326 324 324 325 324 324 324
216 222 232 217 211 199 184 203 216 203 229 232 235 239 221 212 217 206 195 195 211 223 217 230 230 227 234 230 241 251 244 252 246 230 235 238 226 113 133 156 152 151 156 145 128 125 93 108 222 252 260 142 129 146 57 232 231 257 246 222 226 221 200 214 241 287 281 241 231 241 256 264 108 153 210 216 284 316 324 331 332 324 322 323 322 322 322 322
219 226 225 213 202 194 193 223 218 218 233 224 233 237 228 226 220 213 204 192 195 206 217 231 220 218 231 216 222 238 224 225 244 229 229 235 187 104 147 163 161 166 175 158 159 159 165 181 172 221 258 232 190 207 207 190 196 227 229 204 200 203 197 224 260 266 264 237 223 238 254 264 247 168 200 230 288 315 323 331 331 323 323 323 321 322 321 320
221 226 222 211 199 194 203 226 229 240 236 228 241 235 224 233 220 215 220 214 210 208 209 227 207 204 216 205 222 235 213 216 241 230 203 214 155 110 167 176 172 170 133 103 143 161 186 220 189 195 231 231 227 236 216 191 189 213 218 199 196 197 190 182 204 222 235 238 228 233 252 267 270 232 237 263 293 313 320 325 324 320 321 322 320 321 321 319
211 208 200 190 194 203 218 228 232 252 244 237 252 243 226 231 217 208 218 230 227 216 209 214 189 196 204 193 226 243 223 218 232 238 221 192 160 112 170 182 181 145 113 106 129 153 213 260 227 228 237 240 260 301 130 162 192 209 210 202 202 202 196 190 209 223 231 256 250 241 251 267 273 269 269 281 297 306 314 319 318 319 320 320 320 320 319 318
212 208 192 168 184 214 228 231 230 241 245 236 247 253 236 236 231 203 206 220 228 217 219 223 190 192 205 198 221 247 227 212 221 235 239 188 127 84 131 157 188 175 131 119 134 152 231 248 233 239 249 258 283 299 166 180 220 230 226 218 214 208 198 201 220 222 213 247 256 249 250 263 271 273 274 288 302 305 315 317 314 319 321 319 319 319 318 317
216 216 201 195 197 213 215 218 221 227 239 236 235 253 249 244 245 221 200 201 215 207 211 228 212 208 212 205 212 242 225 207 216 229 230 182 125 119 112 121 209 208 150 126 185 183 249 253 229 236 253 259 267 268 237 226 247 245 238 236 229 218 206 210 223 224 212 230 253 265 267 268 273 275 280 295 305 305 313 313 312 318 320 318 318 318 317 315
215 223 199 196 212 231 212 196 197 212 228 230 231 242 243 242 244 232 191 163 218 209 204 227 227 209 211 216 218 228 213 189 225 231 206 151 140 139 144 202 198 192 172 151 210 204 236 261 226 236 261 262 252 257 263 263 267 262 250 245 238 229 224 224 227 225 225 237 252 265 270 270 271 276 283 292 299 303 309 309 312 316 317 317 317 315 314 315
211 212 196 190 218 238 222 192 187 205 223 220 228 235 228 231 239 235 200 182 204 201 199 224 235 203 202 218 219 227 225 212 237 243 175 140 174 163 178 196 157 172 180 169 210 228 217 216 123 224 267 265 244 246 260 265 269 269 260 250 240 237 238 237 233 226 229 242 251 257 264 267 266 272 280 288 297 306 308 309 313 315 315 315 314 313 314 315
216 215 207 197 221 228 215 199 183 201 225 218 221 225 216 225 231 234 228 212 214 209 186 212 232 218 213 227 224 233 238 224 232 218 161 164 188 176 180 168 144 157 181 177 183 208 216 217 89 102 265 271 248 239 253 270 278 272 263 249 236 235 236 237 233 223 224 235 245 251 255 257 263 273 283 293 300 303 306 311 313 312 313 313 311 311 314 315
217 219 217 212 228 223 214 209 192 208 231 216 206 213 220 228 226 225 240 227 219 220 208 204 217 216 226 237 232 235 231 166 118 129 152 159 158 165 177 174 165 166 167 171 180 180 186 196 150 158 249 293 31 187 270 302 290 274 256 229 225 229 232 237 236 227 223 227 236 245 246 252 270 286 290 293 294 298 308 311 308 306 307 309 308 308 312 315